Location: *
(46.1833°N, 22.7667°E)
Time: 22:24:51
(UTC+00:00)

Cosmos 1959 Rocket - Pass Details

Date: 17 September 2019
Orbit: 947 x 997 km, 82.9° (Epoch: 16 October)

Event Time Altitude Azimuth Distance (km) Brightness Sun altitude
Rises 18:48:06 0° 351° (N) 3,630 8.0 -22.4°
Reaches altitude 10° 18:50:35 10° 352° (N) 2,683 7.3 -22.8°
Maximum altitude 18:56:44 86° 80° (E) 962 4.3 -23.7°
Enters shadow 18:59:07 40° 169° (S) 1,371 4.9 -24.1°
